Year,Month,Day,Hour,Minute,Value (Times are PST for temperature in C)
2016,08,12,09,47,22.60
2016,08,12,09,48,22.60
2016,08,12,09,49,22.60
2016,08,12,09,50,22.60
2016,08,12,09,51,22.70
2016,08,12,09,52,22.70
2016,08,12,09,53,22.80
2016,08,12,09,54,22.90
2016,08,12,09,55,23.00
2016,08,12,09,56,23.10
2016,08,12,09,57,23.20
2016,08,12,09,58,23.10
2016,08,12,09,59,23.10
2016,08,12,10,00,23.10
2016,08,12,10,01,23.10
2016,08,12,10,02,23.10
2016,08,12,10,03,23.10
2016,08,12,10,04,23.00
2016,08,12,10,05,22.90
2016,08,12,10,06,22.90
2016,08,12,10,07,22.90
2016,08,12,10,08,22.90
2016,08,12,10,09,23.00
2016,08,12,10,10,23.10
2016,08,12,10,11,23.20
2016,08,12,10,12,23.20
2016,08,12,10,13,23.30
2016,08,12,10,14,23.30
2016,08,12,10,15,23.30
2016,08,12,10,16,23.30
2016,08,12,10,17,23.30
2016,08,12,10,18,23.30
2016,08,12,10,19,23.40
2016,08,12,10,20,23.40
2016,08,12,10,21,23.40
2016,08,12,10,22,23.40
2016,08,12,10,23,23.40
2016,08,12,10,24,23.50
2016,08,12,10,25,23.60
2016,08,12,10,26,23.60
2016,08,12,10,27,23.60
2016,08,12,10,28,23.70
2016,08,12,10,29,23.70
2016,08,12,10,30,23.70
2016,08,12,10,31,23.80
2016,08,12,10,32,23.90
2016,08,12,10,33,23.90
2016,08,12,10,34,23.90
2016,08,12,10,35,23.80
2016,08,12,10,36,23.80
2016,08,12,10,37,23.80
2016,08,12,10,38,23.80
2016,08,12,10,39,23.90
2016,08,12,10,40,23.90
2016,08,12,10,41,23.80
2016,08,12,10,42,23.70
2016,08,12,10,43,23.70
2016,08,12,10,44,23.70
2016,08,12,10,45,23.70
2016,08,12,10,46,23.70
2016,08,12,10,47,23.70
2016,08,12,10,48,23.70
2016,08,12,10,49,23.60
2016,08,12,10,50,23.60
2016,08,12,10,51,23.60
2016,08,12,10,52,23.50
2016,08,12,10,53,23.60
2016,08,12,10,54,23.70
2016,08,12,10,55,23.70
2016,08,12,10,56,23.70
2016,08,12,10,57,23.80
2016,08,12,10,58,23.80
2016,08,12,10,59,23.80
2016,08,12,11,00,23.90
2016,08,12,11,01,24.00
2016,08,12,11,02,24.10
2016,08,12,11,03,24.10
2016,08,12,11,04,24.20
2016,08,12,11,05,24.20
2016,08,12,11,06,24.20
2016,08,12,11,07,24.30
2016,08,12,11,08,24.30
2016,08,12,11,09,24.40
2016,08,12,11,10,24.50
2016,08,12,11,11,24.50
2016,08,12,11,12,24.50
2016,08,12,11,13,24.50
2016,08,12,11,14,24.50
2016,08,12,11,15,24.60
2016,08,12,11,16,24.60
2016,08,12,11,17,24.60
2016,08,12,11,18,24.60
2016,08,12,11,19,24.70
2016,08,12,11,20,24.80
2016,08,12,11,21,24.90
2016,08,12,11,22,24.90
2016,08,12,11,23,24.90
2016,08,12,11,24,24.80
2016,08,12,11,25,24.80
2016,08,12,11,26,24.90
2016,08,12,11,27,24.90
2016,08,12,11,28,25.00
2016,08,12,11,29,25.00
2016,08,12,11,30,25.10
2016,08,12,11,31,25.20
2016,08,12,11,32,25.30
2016,08,12,11,33,25.30
2016,08,12,11,34,25.40
2016,08,12,11,35,25.40
2016,08,12,11,36,25.20
2016,08,12,11,37,25.10
2016,08,12,11,38,24.90
2016,08,12,11,39,24.90
2016,08,12,11,40,24.90
2016,08,12,11,41,24.90
2016,08,12,11,42,25.00
2016,08,12,11,43,25.10
2016,08,12,11,44,25.20
2016,08,12,11,45,25.30
2016,08,12,11,46,25.30
2016,08,12,11,47,25.20
2016,08,12,11,48,25.20
2016,08,12,11,49,25.20
2016,08,12,11,50,25.20
2016,08,12,11,51,25.20
2016,08,12,11,52,25.10
2016,08,12,11,53,25.10
2016,08,12,11,54,25.00
2016,08,12,11,55,25.00
2016,08,12,11,56,24.90
2016,08,12,11,57,24.80
2016,08,12,11,58,24.60
2016,08,12,11,59,24.50
2016,08,12,12,00,24.50
2016,08,12,12,01,24.50
2016,08,12,12,02,24.40
2016,08,12,12,03,24.20
2016,08,12,12,04,24.10
2016,08,12,12,05,23.90
2016,08,12,12,06,23.60
2016,08,12,12,07,23.40
2016,08,12,12,08,23.30
2016,08,12,12,09,23.30
2016,08,12,12,10,23.20
2016,08,12,12,11,23.10
2016,08,12,12,12,23.10
2016,08,12,12,13,23.10
2016,08,12,12,14,23.10
2016,08,12,12,15,23.10
2016,08,12,12,16,23.10
2016,08,12,12,17,23.20
2016,08,12,12,18,23.30
2016,08,12,12,19,23.30
2016,08,12,12,20,23.30
2016,08,12,12,21,23.30
2016,08,12,12,22,23.30
2016,08,12,12,23,23.30
2016,08,12,12,24,23.30
2016,08,12,12,25,23.30
2016,08,12,12,26,23.20
2016,08,12,12,27,23.30
2016,08,12,12,28,23.30
2016,08,12,12,29,23.30
2016,08,12,12,30,23.30
2016,08,12,12,31,23.20
2016,08,12,12,32,23.20
2016,08,12,12,33,23.10
2016,08,12,12,34,23.10
2016,08,12,12,35,23.10
2016,08,12,12,36,23.20
2016,08,12,12,37,23.30
2016,08,12,12,38,23.30
2016,08,12,12,39,23.40
2016,08,12,12,40,23.50
2016,08,12,12,41,23.60
2016,08,12,12,42,23.50
2016,08,12,12,43,23.50
2016,08,12,12,44,23.60
2016,08,12,12,45,23.60
2016,08,12,12,46,23.80
2016,08,12,12,47,23.90
2016,08,12,12,48,24.00
2016,08,12,12,49,24.10
2016,08,12,12,50,24.10
2016,08,12,12,51,24.10
2016,08,12,12,52,24.00
2016,08,12,12,53,23.90
2016,08,12,12,54,23.90
2016,08,12,12,55,23.90
2016,08,12,12,56,24.00
2016,08,12,12,57,24.10
2016,08,12,12,58,24.10
2016,08,12,12,59,24.20
2016,08,12,13,00,24.30
2016,08,12,13,01,24.40
2016,08,12,13,02,24.50
2016,08,12,13,03,24.60
2016,08,12,13,04,24.70
2016,08,12,13,05,24.70
2016,08,12,13,06,24.70
2016,08,12,13,07,24.60
2016,08,12,13,08,24.60
2016,08,12,13,09,24.60
2016,08,12,13,10,24.60
2016,08,12,13,11,24.60
2016,08,12,13,12,24.60
2016,08,12,13,13,24.50
2016,08,12,13,14,24.40
2016,08,12,13,15,24.30
2016,08,12,13,16,24.30
2016,08,12,13,17,24.20
2016,08,12,13,18,24.20
2016,08,12,13,19,24.10
2016,08,12,13,20,24.10
2016,08,12,13,21,24.10
2016,08,12,13,22,24.20
2016,08,12,13,23,24.40
2016,08,12,13,24,24.50
2016,08,12,13,25,24.70
2016,08,12,13,26,24.80
2016,08,12,13,27,25.00
2016,08,12,13,28,25.20
2016,08,12,13,29,25.20
2016,08,12,13,30,25.30
2016,08,12,13,31,25.40
2016,08,12,13,32,25.40
2016,08,12,13,33,25.30
2016,08,12,13,34,25.30
2016,08,12,13,35,25.10
2016,08,12,13,36,25.00
2016,08,12,13,37,24.90
2016,08,12,13,38,24.80
2016,08,12,13,39,24.80
2016,08,12,13,40,24.80
2016,08,12,13,41,24.80
2016,08,12,13,42,24.90
2016,08,12,13,43,25.00
2016,08,12,13,44,25.10
2016,08,12,13,45,25.20
2016,08,12,13,46,25.30
2016,08,12,13,47,25.40
2016,08,12,13,48,25.50
2016,08,12,13,49,25.50
2016,08,12,13,50,25.50
2016,08,12,13,51,25.40
2016,08,12,13,52,25.40
2016,08,12,13,53,25.30
2016,08,12,13,54,25.30
2016,08,12,13,55,25.30
2016,08,12,13,56,25.30
2016,08,12,13,57,25.30
2016,08,12,13,58,25.30
2016,08,12,13,59,25.40
2016,08,12,14,00,25.30
2016,08,12,14,01,25.30
2016,08,12,14,02,25.30
2016,08,12,14,03,25.30
2016,08,12,14,04,25.20
2016,08,12,14,05,25.20
2016,08,12,14,06,25.30
2016,08,12,14,07,25.30
2016,08,12,14,08,25.30
2016,08,12,14,09,25.20
2016,08,12,14,10,25.20
2016,08,12,14,11,25.20
2016,08,12,14,12,25.20
2016,08,12,14,13,25.20
2016,08,12,14,14,25.20
2016,08,12,14,15,25.10
2016,08,12,14,16,25.10
2016,08,12,14,17,25.00
2016,08,12,14,18,24.90
2016,08,12,14,19,24.80
2016,08,12,14,20,24.80
2016,08,12,14,21,24.80
2016,08,12,14,22,24.70
2016,08,12,14,23,24.70
2016,08,12,14,24,24.70
2016,08,12,14,25,24.60
2016,08,12,14,26,24.50
2016,08,12,14,27,24.50
2016,08,12,14,28,24.40
2016,08,12,14,29,24.40
2016,08,12,14,30,24.40
2016,08,12,14,31,24.40
2016,08,12,14,32,24.40
2016,08,12,14,33,24.50
2016,08,12,14,34,24.60
2016,08,12,14,35,24.70
2016,08,12,14,36,24.70
2016,08,12,14,37,24.70
2016,08,12,14,38,24.80
2016,08,12,14,39,24.90
2016,08,12,14,40,24.90
2016,08,12,14,41,24.90
2016,08,12,14,42,24.80
2016,08,12,14,43,24.80
2016,08,12,14,44,24.80
2016,08,12,14,45,24.90
2016,08,12,14,46,24.90
2016,08,12,14,47,24.90
2016,08,12,14,48,24.80
2016,08,12,14,49,24.70
2016,08,12,14,50,24.50
2016,08,12,14,51,24.40
2016,08,12,14,52,24.30
2016,08,12,14,53,24.30
2016,08,12,14,54,24.30
2016,08,12,14,55,24.30
2016,08,12,14,56,24.30
2016,08,12,14,57,24.30
2016,08,12,14,58,24.30
2016,08,12,14,59,24.20
2016,08,12,15,00,24.20
2016,08,12,15,01,24.10
2016,08,12,15,02,24.10
2016,08,12,15,03,24.10
2016,08,12,15,04,24.20
2016,08,12,15,05,24.20
2016,08,12,15,06,24.30
2016,08,12,15,07,24.40
2016,08,12,15,08,24.50
2016,08,12,15,09,24.60
2016,08,12,15,10,24.70
2016,08,12,15,11,24.80
2016,08,12,15,12,24.90
2016,08,12,15,13,24.90
2016,08,12,15,14,25.00
2016,08,12,15,15,24.90
2016,08,12,15,16,24.90
2016,08,12,15,17,24.90
2016,08,12,15,18,24.90
2016,08,12,15,19,24.90
2016,08,12,15,20,24.90
2016,08,12,15,21,24.90
2016,08,12,15,22,24.80
2016,08,12,15,23,24.80
2016,08,12,15,24,24.70
2016,08,12,15,25,24.60
2016,08,12,15,26,24.60
2016,08,12,15,27,24.60
2016,08,12,15,28,24.60
2016,08,12,15,29,24.70
2016,08,12,15,30,24.70
2016,08,12,15,31,24.80
2016,08,12,15,32,24.80
2016,08,12,15,33,24.80
2016,08,12,15,34,24.90
2016,08,12,15,35,24.90
2016,08,12,15,36,24.90
2016,08,12,15,37,25.00
2016,08,12,15,38,25.10
2016,08,12,15,39,25.10
2016,08,12,15,40,25.20
2016,08,12,15,41,25.30
2016,08,12,15,42,25.30
2016,08,12,15,43,25.40
2016,08,12,15,44,25.50
2016,08,12,15,45,25.60
2016,08,12,15,46,25.60
2016,08,12,15,47,25.60
2016,08,12,15,48,25.70
2016,08,12,15,49,25.70
2016,08,12,15,50,25.60
2016,08,12,15,51,25.70
2016,08,12,15,52,25.60
2016,08,12,15,53,25.40
2016,08,12,15,54,25.30
2016,08,12,15,55,25.30
2016,08,12,15,56,25.40
2016,08,12,15,57,25.40
2016,08,12,15,58,25.50
2016,08,12,15,59,25.60
2016,08,12,16,00,25.60
2016,08,12,16,01,25.70
2016,08,12,16,02,25.60
2016,08,12,16,03,25.60
2016,08,12,16,04,25.60
2016,08,12,16,05,25.60
2016,08,12,16,06,25.60
2016,08,12,16,07,25.70
2016,08,12,16,08,25.70
2016,08,12,16,09,25.80
2016,08,12,16,10,25.80
2016,08,12,16,11,25.90
2016,08,12,16,12,26.00
2016,08,12,16,13,26.00
2016,08,12,16,14,26.00
2016,08,12,16,15,26.10
2016,08,12,16,16,26.20
2016,08,12,16,17,26.20
2016,08,12,16,18,26.20
2016,08,12,16,19,26.20
2016,08,12,16,20,26.20
2016,08,12,16,21,26.30
2016,08,12,16,22,26.30
2016,08,12,16,23,26.40
2016,08,12,16,24,26.40
2016,08,12,16,25,26.40
2016,08,12,16,26,26.40
2016,08,12,16,27,26.30
2016,08,12,16,28,26.20
2016,08,12,16,29,26.20
2016,08,12,16,30,26.00
2016,08,12,16,31,25.90
2016,08,12,16,32,25.80
2016,08,12,16,33,25.70
2016,08,12,16,34,25.60
2016,08,12,16,35,25.50
2016,08,12,16,36,25.40
2016,08,12,16,37,25.30
2016,08,12,16,38,25.20
2016,08,12,16,39,25.10
2016,08,12,16,40,25.00
2016,08,12,16,41,24.90
2016,08,12,16,42,24.80
2016,08,12,16,43,24.70
2016,08,12,16,44,24.70
2016,08,12,16,45,24.70
2016,08,12,16,46,24.80
2016,08,12,16,47,24.80
2016,08,12,16,48,24.80
2016,08,12,16,49,24.70
2016,08,12,16,50,24.70
2016,08,12,16,51,24.70
2016,08,12,16,52,24.70
2016,08,12,16,53,24.80
2016,08,12,16,54,24.80
2016,08,12,16,55,24.80
2016,08,12,16,56,24.90
2016,08,12,16,57,24.90
2016,08,12,16,58,24.90
2016,08,12,16,59,25.00
2016,08,12,17,00,25.00
2016,08,12,17,01,25.00
2016,08,12,17,02,25.00
2016,08,12,17,03,25.00
2016,08,12,17,04,25.00
2016,08,12,17,05,25.00
2016,08,12,17,06,25.00
2016,08,12,17,07,25.10
2016,08,12,17,08,25.10
2016,08,12,17,09,25.20
2016,08,12,17,10,25.20
2016,08,12,17,11,25.20
2016,08,12,17,12,25.20
2016,08,12,17,13,25.20
2016,08,12,17,14,25.20
2016,08,12,17,15,25.20
2016,08,12,17,16,25.20
2016,08,12,17,17,25.30
2016,08,12,17,18,25.30
2016,08,12,17,19,25.40
2016,08,12,17,20,25.40
2016,08,12,17,21,25.50
2016,08,12,17,22,25.50
2016,08,12,17,23,25.60
2016,08,12,17,24,25.60
2016,08,12,17,25,25.70
2016,08,12,17,26,25.70
2016,08,12,17,27,25.80
2016,08,12,17,28,25.80
2016,08,12,17,29,25.80
2016,08,12,17,30,25.80
2016,08,12,17,31,25.80
2016,08,12,17,32,25.90
2016,08,12,17,33,25.90
2016,08,12,17,34,26.00
2016,08,12,17,35,26.00
2016,08,12,17,36,26.00
2016,08,12,17,37,26.00
2016,08,12,17,38,26.00
2016,08,12,17,39,26.00
2016,08,12,17,40,26.00
2016,08,12,17,41,26.10
2016,08,12,17,42,26.10
2016,08,12,17,43,26.10
2016,08,12,17,44,26.20
2016,08,12,17,45,26.20
2016,08,12,17,46,26.20
2016,08,12,17,47,26.20
2016,08,12,17,48,26.20
2016,08,12,17,49,26.20
2016,08,12,17,50,26.10
2016,08,12,17,51,26.10
2016,08,12,17,52,26.00
2016,08,12,17,53,26.00
2016,08,12,17,54,26.00
2016,08,12,17,55,25.90
2016,08,12,17,56,25.90
2016,08,12,17,57,25.90
2016,08,12,17,58,25.80
2016,08,12,17,59,25.80
2016,08,12,18,00,25.80
2016,08,12,18,01,25.80
2016,08,12,18,02,25.80
2016,08,12,18,03,25.70
2016,08,12,18,04,25.70
2016,08,12,18,05,25.70
2016,08,12,18,06,25.70
2016,08,12,18,07,25.60
2016,08,12,18,08,25.60
2016,08,12,18,09,25.50
2016,08,12,18,10,25.50
2016,08,12,18,11,25.50
2016,08,12,18,12,25.40
2016,08,12,18,13,25.40
2016,08,12,18,14,25.40
2016,08,12,18,15,25.40
2016,08,12,18,16,25.40
2016,08,12,18,17,25.40
2016,08,12,18,18,25.40
2016,08,12,18,19,25.40
2016,08,12,18,20,25.40
2016,08,12,18,21,25.40
2016,08,12,18,22,25.40
2016,08,12,18,23,25.40
2016,08,12,18,24,25.40
2016,08,12,18,25,25.40
2016,08,12,18,26,25.50
2016,08,12,18,27,25.50
2016,08,12,18,28,25.50
2016,08,12,18,29,25.50
2016,08,12,18,30,25.50
2016,08,12,18,31,25.60
2016,08,12,18,32,25.70
2016,08,12,18,33,25.70
2016,08,12,18,34,25.80
2016,08,12,18,35,25.80
2016,08,12,18,36,25.90
2016,08,12,18,37,25.90
2016,08,12,18,38,25.90
2016,08,12,18,39,25.90
2016,08,12,18,40,26.00
2016,08,12,18,41,26.00
2016,08,12,18,42,26.00
2016,08,12,18,43,26.00
2016,08,12,18,44,26.00
2016,08,12,18,45,26.00
2016,08,12,18,46,26.00
2016,08,12,18,47,26.00
2016,08,12,18,48,25.90
2016,08,12,18,49,25.90
2016,08,12,18,50,25.90
2016,08,12,18,51,25.90
2016,08,12,18,52,25.90
2016,08,12,18,53,25.90
2016,08,12,18,54,25.90
2016,08,12,18,55,25.90
2016,08,12,18,56,25.80
2016,08,12,18,57,25.80
2016,08,12,18,58,25.80
2016,08,12,18,59,25.80
2016,08,12,19,00,25.70
2016,08,12,19,01,25.70
2016,08,12,19,02,25.60
2016,08,12,19,03,25.60
2016,08,12,19,04,25.60
2016,08,12,19,05,25.60
2016,08,12,19,06,25.60
2016,08,12,19,07,25.60
2016,08,12,19,08,25.60
2016,08,12,19,09,25.60
2016,08,12,19,10,25.60
2016,08,12,19,11,25.60
2016,08,12,19,12,25.60
2016,08,12,19,13,25.60
2016,08,12,19,14,25.70
2016,08,12,19,15,25.70
2016,08,12,19,16,25.70
2016,08,12,19,17,25.70
2016,08,12,19,18,25.60
2016,08,12,19,19,25.60
2016,08,12,19,20,25.60
2016,08,12,19,21,25.50
2016,08,12,19,22,25.40
2016,08,12,19,23,25.40
2016,08,12,19,24,25.30
2016,08,12,19,25,25.30
2016,08,12,19,26,25.20
2016,08,12,19,27,25.20
2016,08,12,19,28,25.10
2016,08,12,19,29,25.10
2016,08,12,19,30,25.00
2016,08,12,19,31,24.90
2016,08,12,19,32,24.90
2016,08,12,19,33,24.80
2016,08,12,19,34,24.70
2016,08,12,19,35,24.70
2016,08,12,19,36,24.60
2016,08,12,19,37,24.60
2016,08,12,19,38,24.60
2016,08,12,19,39,24.50
2016,08,12,19,40,24.50
2016,08,12,19,41,24.50
2016,08,12,19,42,24.40
2016,08,12,19,43,24.40
2016,08,12,19,44,24.40
2016,08,12,19,45,24.30
2016,08,12,19,46,24.30
2016,08,12,19,47,24.20
2016,08,12,19,48,24.20
2016,08,12,19,49,24.20
2016,08,12,19,50,24.20
2016,08,12,19,51,24.20
2016,08,12,19,52,24.20
2016,08,12,19,53,24.20
2016,08,12,19,54,24.30
2016,08,12,19,55,24.20
2016,08,12,19,56,24.20
2016,08,12,19,57,24.20
2016,08,12,19,58,24.10
2016,08,12,19,59,24.10
2016,08,12,20,00,24.10
2016,08,12,20,01,24.10
2016,08,12,20,02,24.00
2016,08,12,20,03,23.90
2016,08,12,20,04,23.90
2016,08,12,20,05,23.80
2016,08,12,20,06,23.80
2016,08,12,20,07,23.80
2016,08,12,20,08,23.80
2016,08,12,20,09,23.80
2016,08,12,20,10,23.80
2016,08,12,20,11,23.80
2016,08,12,20,12,23.80
2016,08,12,20,13,23.80
2016,08,12,20,14,23.80
